[[{"header":{"parameterUnit":"m.s-1","parameterCategory":1,"la1":30.2991,"la2":30.254,"lo1":-89.0895,"lo2":-89.0444,"dy":0.0017,"dx":0.0017,"nx":28,"ny":28,"refTime":"2024-04-16T21:00:00:Z","depth":0,"parameterNumber":2,"parameterNumberName":"U-component_of_WINDS"},"data":[0,0,0,0,0,0,0,0,0,0,0,0,0,0,0,0,0,0,0,0,0,0,0,0,0,0,0,0,0,0,0,0,0,0,0,0,0,0,0,0,0,0,0,0,0,0,0,0,0,0,0,0,0,0,0,0,0,0,-0.5024,-0.5025,0,-0.5136,-0.5137,-0.5138,-0.5165,-0.5164,-0.5163,-0.5162,-0.5283,-0.5287,-0.529,0,0,0,0,0,0,0,0,0,0,0,0,0,-0.484,-0.4843,-0.5024,-0.5025,-0.5026,-0.5136,-0.5137,-0.5139,-0.5165,-0.5164,-0.5163,-0.5162,-0.5281,-0.5286,-0.5291,0,0,0,0,0,0,0,0,0,0,0,0,0,-0.4933,-0.4844,-0.5023,-0.5053,-0.5056,-0.5135,-0.5137,-0.5139,-0.5165,-0.5164,-0.5163,-0.5162,-0.528,-0.5286,-0.5291,-0.5351,0,0,-0.5309,-0.5312,0,0,0,0,0,0,0,0,-0.4927,-0.4939,-0.5047,-0.5051,-0.5055,-0.5135,-0.5116,-0.521,-0.5165,-0.5124,-0.5162,-0.5161,-0.5235,-0.5244,-0.5268,-0.5357,-0.5362,-0.531,-0.5314,-0.5316,-0.5318,0,0,0,0,0,0,0,-0.4921,-0.4935,-0.5068,-0.5048,-0.5053,-0.5062,-0.5074,-0.5134,-0.5185,-0.5127,-0.513,-0.5142,-0.5237,-0.5262,-0.5271,-0.5364,-0.531,-0.5315,-0.5319,-0.5321,-0.5511,-0.5512,0,0,0,0,0,0,-0.4908,-0.4929,-0.5065,-0.5072,-0.4987,-0.5067,-0.508,-0.5111,-0.5184,-0.5194,-0.5143,-0.5143,-0.5253,-0.5264,-0.5276,-0.5353,-0.5316,-0.5322,-0.5325,-0.5509,-0.5511,-0.5513,0,0,0,0,0,0,-0.4904,-0.492,-0.506,-0.5001,-0.5019,-0.5071,-0.5105,-0.5113,-0.5139,-0.5196,-0.5206,-0.5159,-0.5252,-0.5267,-0.5333,-0.5357,-0.5324,-0.533,-0.5507,-0.551,-0.5512,-0.5506,0,0,0,0,0,0,-0.4899,-0.4919,-0.494,-0.5001,-0.5022,-0.5113,-0.5107,-0.5116,-0.5148,-0.5149,-0.5214,-0.5223,-0.5253,-0.5324,-0.5338,-0.5365,-0.5334,-0.5506,-0.5509,-0.5511,-0.5504,-0.5507,-0.551,0,0,0,0,0,-0.4892,-0.4934,-0.4941,-0.4957,-0.505,-0.5114,-0.5127,-0.5158,-0.515,-0.5173,-0.5211,-0.5221,-0.5352,-0.533,-0.5347,-0.5375,-0.5504,-0.5508,-0.5511,-0.5502,-0.5507,-0.551,0,0,0,0,0,0,-0.4876,-0.4943,-0.4951,-0.5013,-0.5058,-0.5118,-0.5149,-0.5161,-0.521,-0.5209,-0.5248,-0.5262,-0.5326,-0.5357,-0.5332,-0.5439,-0.5428,-0.5435,-0.5416,-0.542,-0.5423,-0.5415,-0.5339,0,0,0,0,0,-0.4879,-0.4924,-0.4981,-0.503,-0.5052,-0.5097,-0.5126,-0.5146,-0.5194,-0.5214,-0.5256,-0.5304,-0.5356,-0.539,-0.5441,-0.5508,-0.5525,-0.5536,-0.554,-0.5542,-0.5548,-0.5589,-0.5596,-0.5524,-0.5524,-0.5524,0,0,-0.4887,-0.4929,-0.4955,-0.5028,-0.5065,-0.5113,-0.5112,-0.5162,-0.5199,-0.5222,-0.5286,-0.5319,-0.5376,-0.5443,-0.5475,-0.5471,-0.5572,-0.5546,-0.5548,-0.5553,-0.5593,-0.56,-0.5606,-0.5526,-0.5526,-0.5525,0,0,-0.4927,-0.4961,-0.5008,-0.5045,-0.51,-0.513,-0.5141,-0.5201,-0.5223,-0.5288,-0.5307,-0.5352,-0.544,-0.5481,-0.5513,-0.557,-0.5583,-0.5586,-0.5603,-0.5643,-0.5649,-0.5654,-0.5677,-0.5684,-0.5591,-0.5591,-0.5591,0,-0.493,-0.5001,-0.5031,-0.5081,-0.5114,-0.5135,-0.5185,-0.522,-0.529,-0.5313,-0.5308,-0.5421,-0.546,-0.5539,-0.5553,-0.5577,-0.5594,-0.5579,-0.5645,-0.5651,-0.5656,-0.5678,-0.5687,-0.5591,-0.5591,-0.5591,-0.5591,0,-0.5004,-0.5053,-0.5084,-0.515,-0.5186,-0.5236,-0.5276,-0.531,-0.5327,-0.5358,-0.5426,-0.5474,-0.5537,-0.5557,-0.5575,-0.5639,-0.5635,-0.5637,-0.5627,-0.5662,-0.5684,-0.5693,-0.5592,-0.5592,-0.5591,-0.5591,0,0,-0.5035,-0.5118,-0.5129,-0.5161,-0.5224,-0.5264,-0.5316,-0.5375,-0.5405,-0.5453,-0.55,-0.5574,-0.5577,-0.5613,-0.5636,-0.5671,-0.5717,-0.5669,-0.5671,-0.5678,-0.5794,-0.5793,-0.5803,-0.5725,-0.5727,-0.5728,-0.579,0,-0.5084,-0.5175,-0.5205,-0.5281,-0.5329,-0.5351,-0.5397,-0.5442,-0.5473,-0.552,-0.5555,-0.5609,-0.5606,-0.5629,-0.5664,-0.5703,-0.5741,-0.5699,-0.5771,-0.5774,-0.5758,-0.5814,-0.5813,-0.5869,-0.5798,-0.58,-0.5801,0,-0.5153,-0.5201,-0.5282,-0.5342,-0.5363,-0.5403,-0.5462,-0.5505,-0.5559,-0.5579,-0.562,-0.5641,-0.5699,-0.5685,-0.5768,-0.5739,-0.577,-0.5794,-0.5797,-0.5807,-0.579,-0.5827,-0.5887,-0.5896,-0.5814,-0.5813,-0.5812,0,-0.517,-0.5256,-0.5316,-0.5342,-0.5413,-0.5441,-0.5472,-0.5524,-0.5559,-0.5611,-0.5635,-0.5693,-0.5725,-0.5771,-0.5809,-0.5795,-0.5889,-0.5877,-0.591,-0.5909,-0.593,-0.5928,-0.5998,-0.5947,-0.5947,-0.5946,-0.5946,0,-0.5223,-0.5272,-0.5325,-0.5362,-0.5419,-0.5455,-0.5511,-0.5544,-0.559,-0.5637,-0.566,-0.5703,-0.5749,-0.5799,-0.5829,-0.5894,-0.5908,-0.5928,-0.5936,-0.5927,-0.5925,-0.595,-0.5948,-0.5949,-0.5948,-0.5948,-0.5947,0,-0.5252,-0.5289,-0.5357,-0.5419,-0.5436,-0.5475,-0.5529,-0.5568,-0.56,-0.5659,-0.5675,-0.5726,-0.5786,-0.5828,-0.5905,-0.5926,-0.5997,-0.6003,-0.5979,-0.5983,-0.6014,-0.6011,-0.6104,-0.6119,-0.6055,-0.6056,-0.6056,0,-0.5284,-0.5322,-0.5388,-0.542,-0.5451,-0.5502,-0.5538,-0.5575,-0.5611,-0.5676,-0.5708,-0.577,-0.5821,-0.5918,-0.5964,-0.6024,-0.6033,-0.6061,-0.6042,-0.6033,-0.6037,-0.6034,-0.604,-0.6065,-0.6065,-0.6066,-0.6066,0,-0.5337,-0.5354,-0.5403,-0.546,-0.5501,-0.5548,-0.5595,-0.5621,-0.5667,-0.5707,-0.5769,-0.5809,-0.5888,-0.5951,-0.6016,-0.6051,-0.6068,-0.6071,-0.6083,-0.6075,-0.606,-0.6071,-0.5989,-0.6069,-0.6069,-0.6069,-0.6069,-0.6068,-0.537,-0.5407,-0.5459,-0.5514,-0.5553,-0.5597,-0.5637,-0.5675,-0.5726,-0.5793,-0.5812,-0.5877,-0.5933,-0.6022,-0.6058,-0.6111,-0.6109,-0.6124,-0.6129,-0.6133,-0.6134,-0.605,-0.6123,-0.6123,-0.6123,-0.6123,-0.6123,0,-0.5427,-0.5462,-0.5512,-0.5577,-0.5621,-0.563,-0.5684,-0.5721,-0.5777,-0.5827,-0.5877,-0.595,-0.6011,-0.6061,-0.6125,-0.6158,-0.6168,-0.6174,-0.6173,-0.6182,-0.6131,-0.6116,-0.6166,-0.6166,-0.6166,-0.6166,-0.6166,-0.6166,-0.5461,-0.5524,-0.5547,-0.5631,-0.5666,-0.5729,-0.5759,-0.5801,-0.5841,-0.592,-0.597,-0.6002,-0.6054,-0.6122,-0.618,-0.6193,-0.6217,-0.6222,-0.6238,-0.619,-0.6185,-0.618,-0.6166,-0.6226,-0.6226,-0.6284,-0.6285,-0.6285]},{"header":{"parameterUnit":"m.s-1","parameterCategory":1,"la1":30.2991,"la2":30.254,"lo1":-89.0895,"lo2":-89.0444,"dy":0.0017,"dx":0.0017,"nx":28,"ny":28,"refTime":"2024-04-16T21:00:00:Z","depth":0,"parameterNumber":3,"parameterNumberName":"V-component_of_WINDS"},"data":[0,0,0,0,0,0,0,0,0,0,0,0,0,0,0,0,0,0,0,0,0,0,0,0,0,0,0,0,0,0,0,0,0,0,0,0,0,0,0,0,0,0,0,0,0,0,0,0,0,0,0,0,0,0,0,0,0,0,3.0377,3.0375,0,3.0169,3.0166,3.0164,3.0044,3.0044,3.0043,3.0043,2.9827,2.9822,2.9817,0,0,0,0,0,0,0,0,0,0,0,0,0,3.0669,3.0664,3.0377,3.0375,3.0372,3.0169,3.0166,3.0163,3.0044,3.0044,3.0043,3.0043,2.9829,2.9823,2.9817,0,0,0,0,0,0,0,0,0,0,0,0,0,3.051,3.0663,3.0378,3.0288,3.0278,3.017,3.0166,3.0163,3.0044,3.0044,3.0043,3.0042,2.9831,2.9824,2.9816,2.978,0,0,2.9791,2.9788,0,0,0,0,0,0,0,0,3.0519,3.0499,3.0304,3.0294,3.0283,3.0132,3.019,3.0034,3.0045,3.0133,3.0043,3.0042,2.9929,2.9913,2.9875,2.9769,2.976,2.9791,2.9786,2.9782,2.978,0,0,0,0,0,0,0,3.053,3.0507,3.0295,3.0301,3.0288,3.0257,3.0234,3.016,3.0037,3.0125,3.0116,3.0093,2.9923,2.9883,2.9869,2.9757,2.9791,2.9784,2.9779,2.9776,2.961,2.961,0,0,0,0,0,0,3.0556,3.0517,3.0301,3.0288,3.0402,3.0253,3.0227,3.0181,3.0038,3.0015,3.0094,3.0088,2.9897,2.9879,2.9861,2.9808,2.9782,2.9775,2.977,2.961,2.961,2.9611,0,0,0,0,0,0,3.0562,3.0538,3.031,3.04,3.0369,3.0248,3.0198,3.0177,3.0137,3.0014,2.9991,3.0076,2.9896,2.9873,2.9801,2.9799,2.9771,2.9764,2.9609,2.961,2.961,2.9704,0,0,0,0,0,0,3.0571,3.0541,3.0526,3.0401,3.0365,3.0253,3.0198,3.0174,3.0124,3.0115,2.9991,2.997,2.9894,2.9813,2.9793,2.9788,2.9758,2.9609,2.9609,2.961,2.97,2.9707,2.9714,0,0,0,0,0,3.0582,3.0561,3.0526,3.0501,3.0344,3.0254,3.0233,3.0146,3.0124,3.0108,3.0029,2.9974,2.9804,2.9807,2.9783,2.9776,2.9608,2.9609,2.961,2.9697,2.9706,2.9713,0,0,0,0,0,0,3.0688,3.0542,3.0503,3.044,3.036,3.0234,3.021,3.0158,3.0082,3.0076,2.9971,2.9944,2.9882,2.9822,2.9828,2.9733,2.97,2.9696,2.9774,2.9782,2.9788,2.9803,2.9751,0,0,0,0,0,3.0705,3.0644,3.052,3.0476,3.0438,3.0332,3.0289,3.0229,3.0142,3.0107,3.0023,2.994,2.9867,2.9821,2.9748,2.9692,2.9662,2.9675,2.9682,2.9688,2.9685,2.965,2.9653,2.9613,2.9613,2.9613,0,0,3.0737,3.065,3.0618,3.0495,3.0426,3.0365,3.0304,3.0242,3.0195,3.0097,3.0024,2.996,2.986,2.9796,2.9763,2.9743,2.969,2.9689,2.9695,2.9688,2.9651,2.9655,2.9658,2.9614,2.9614,2.9614,0,0,3.0764,3.0694,3.0649,3.0581,3.0478,3.0407,3.0397,3.0278,3.0232,3.0157,3.0082,3.0025,2.9902,2.9834,2.9783,2.9786,2.9731,2.9765,2.9799,2.9766,2.9769,2.9771,2.9771,2.9772,2.9763,2.9763,2.9763,0,3.0818,3.0723,3.0633,3.0574,3.0522,3.0433,3.0386,3.0324,3.0202,3.0168,3.0148,2.9992,2.9919,2.9836,2.9837,2.98,2.9784,2.9777,2.9776,2.9778,2.9778,2.9777,2.9777,2.9768,2.9767,2.9767,2.9766,0,3.0793,3.0728,3.0705,3.059,3.0535,3.0483,3.0384,3.0339,3.0285,3.0216,3.0141,3.005,2.9956,2.9932,2.9878,2.9842,2.9833,2.9797,2.9761,2.9788,2.9785,2.9784,2.9774,2.9773,2.9771,2.977,0,0,3.088,3.0716,3.0709,3.0655,3.0535,3.0482,3.0427,3.0335,3.0299,3.0218,3.0167,3.0066,3.0031,2.9974,2.9911,2.9883,2.9889,2.9849,2.9845,2.9858,2.9843,2.987,2.9871,2.9853,2.9853,2.9853,2.9851,0,3.0888,3.0784,3.0701,3.0627,3.0566,3.048,3.0431,3.0352,3.0286,3.0224,3.0152,3.0081,3.0041,3.0006,2.9974,2.9895,2.9884,2.9894,2.9804,2.9802,2.983,2.9869,2.9898,2.99,2.9849,2.9849,2.9848,0,3.0884,3.0807,3.0728,3.0613,3.0584,3.0542,3.0451,3.0393,3.0301,3.0256,3.0193,3.0128,3.0064,3.0037,2.9947,2.9955,2.9914,2.987,2.9868,2.9854,2.9826,2.9855,2.9899,2.9899,2.9846,2.9846,2.9846,0,3.0954,3.083,3.0766,3.0723,3.0589,3.0561,3.0503,3.0411,3.0361,3.0282,3.0249,3.0164,3.0117,3.0052,2.9966,2.9954,2.9885,2.985,2.9844,2.9846,2.9831,2.9833,2.9867,2.9808,2.9808,2.9808,2.9808,0,3.0971,3.0925,3.0795,3.0756,3.0702,3.0607,3.0556,3.0491,3.041,3.0356,3.0277,3.0228,3.0118,3.0055,2.9987,2.9923,2.9902,2.9863,2.9845,2.9869,2.9874,2.9839,2.9836,2.9808,2.9808,2.9808,2.9808,0,3.1039,3.095,3.0875,3.0754,3.0723,3.0688,3.0584,3.0542,3.0473,3.0405,3.0384,3.0275,3.0197,3.0106,2.9998,2.9952,2.9893,2.9868,2.9924,2.9913,2.9912,2.9913,2.9923,2.9919,2.9866,2.9866,2.9867,0,3.1055,3.1018,3.0893,3.0852,3.0797,3.0731,3.068,3.0585,3.0536,3.0428,3.0399,3.0316,3.0243,3.0123,3.0034,2.9951,2.9922,2.9932,2.9909,2.9934,2.992,2.9923,2.9918,2.9937,2.9938,2.9939,2.994,0,3.1092,3.105,3.0981,3.0895,3.0837,3.0765,3.069,3.066,3.0551,3.0499,3.0418,3.0363,3.0253,3.017,3.0077,3.0016,2.9959,2.9948,2.9942,2.9965,2.9998,2.9979,2.9939,2.9948,2.9947,2.9946,2.9946,2.9946,3.1133,3.1096,3.1002,3.0927,3.0861,3.0792,3.0747,3.0672,3.0604,3.0507,3.0456,3.0377,3.0285,3.0153,3.0096,3.0032,3.0012,3.0004,3.0001,3.0,3.0006,3.0011,3.0015,3.0014,3.0014,3.0014,3.0013,0,3.1165,3.1101,3.1033,3.093,3.0871,3.0824,3.0738,3.0691,3.0623,3.0543,3.0474,3.0381,3.0301,3.0207,3.012,3.0087,3.0059,3.0068,3.0068,3.0055,3.003,3.0043,3.0092,3.0092,3.0092,3.0092,3.0092,3.0092,3.1174,3.1108,3.1056,3.0956,3.0891,3.0813,3.0768,3.0705,3.064,3.0541,3.0474,3.0413,3.0327,3.0234,3.0158,3.0132,3.0103,3.0119,3.0086,3.0064,3.0057,3.005,3.0062,3.0114,3.0114,3.0116,3.0116,3.0116]}]]